Platitera Tonouranon — SX7180 — position and weather

sailwx.info

Track history (hours):
 
Tides and Currents Weather Stations Pressure Air Temp Water Temp Dewpoint Dewpoint Depression Visibility Wind Speed Wind Dir Waves Ship Positions

Platitera Tonouranon

Last reported at 2014-Oct-25 22:33 UTC. Time now 2014-Oct-25 22:47 UTC.
Position N 37°56' E 023°41'.

Length 55 m; draft 3.8 m.

Type: Ship (hazmat cat A). MMSI: 237038200.

Date/timePositionNaut miles runAvg speedWind from/ knotsBaromVisibWave heightAir tempDewpointWater temp
2014-Oct-25 22:33N 37°56' E 023°41'0 0.0
2014-Oct-25 21:33N 37°56' E 023°41'0 0.0
2014-Oct-25 20:33N 37°56' E 023°41'0 0.0
2014-Oct-25 19:33N 37°56' E 023°41'0 0.0
2014-Oct-25 18:33N 37°56' E 023°41'0 0.0
2014-Oct-25 17:33N 37°56' E 023°41'0 0.2
2014-Oct-25 16:33N 37°56' E 023°41'1111.4
2014-Oct-25 15:33N 37°46' E 023°35'7 1.0
2014-Oct-25 08:30N 37°45' E 023°26'0 0.0
2014-Oct-25 07:05N 37°45' E 023°26'510.1
2014-Oct-25 06:33N 37°50' E 023°24'8 8.6
2014-Oct-25 05:34N 37°58' E 023°22'0 0.0
2014-Oct-25 04:33N 37°58' E 023°22'0 0.0
2014-Oct-25 03:34N 37°58' E 023°22'0 0.0
2014-Oct-25 02:33N 37°58' E 023°22'0 0.0
2014-Oct-25 01:33N 37°58' E 023°22'0 0.0
2014-Oct-25 00:33N 37°58' E 023°22'0 0.0
2014-Oct-24 23:34N 37°58' E 023°22'0 0.0
2014-Oct-24 22:34N 37°58' E 023°22'0 0.0
2014-Oct-24 21:33N 37°58' E 023°22'0 0.0
2014-Oct-24 20:33N 37°58' E 023°22'0 0.0
2014-Oct-24 19:33N 37°58' E 023°22'0 0.0
2014-Oct-24 18:34N 37°58' E 023°22'0 0.0
2014-Oct-24 17:34N 37°58' E 023°22'0 0.0
2014-Oct-24 16:33N 37°58' E 023°22'5 5.1
2014-Oct-24 15:30N 37°53' E 023°23'9 4.4
2014-Oct-24 13:33N 37°45' E 023°26'4 4.2
2014-Oct-24 12:33N 37°41' E 023°25'8 1.2
2014-Oct-24 06:17N 37°44' E 023°34'811.2
2014-Oct-24 05:33N 37°52' E 023°37'5 5.4
2014-Oct-24 04:33N 37°56' E 023°41'0 0.0
2014-Oct-24 03:33N 37°56' E 023°41'0 0.0
2014-Oct-24 02:33N 37°56' E 023°41'0 0.0
2014-Oct-24 01:33N 37°56' E 023°41'0 0.0
2014-Oct-24 00:33N 37°56' E 023°41'0 0.0
2014-Oct-23 23:33N 37°56' E 023°41'0 0.0
2014-Oct-23 22:33N 37°56' E 023°41'0 0.0
2014-Oct-23 21:33N 37°56' E 023°41'0 0.0
2014-Oct-23 20:33N 37°56' E 023°41'0 0.0
2014-Oct-23 19:33N 37°56' E 023°41'0 0.0
2014-Oct-23 18:33N 37°56' E 023°41'0 0.0
2014-Oct-23 17:33N 37°56' E 023°41'0 0.0
2014-Oct-23 16:33N 37°56' E 023°41'0 0.0
2014-Oct-23 15:33N 37°56' E 023°41'0 0.0
2014-Oct-23 14:33N 37°56' E 023°41'0 0.0
2014-Oct-23 13:33N 37°56' E 023°41'0 0.0
2014-Oct-23 12:33N 37°56' E 023°41'0 0.0
2014-Oct-23 11:33N 37°56' E 023°41'0 0.0
2014-Oct-23 10:33N 37°56' E 023°41'0 0.0
2014-Oct-23 09:33N 37°56' E 023°41'0 0.0
2014-Oct-23 08:33N 37°56' E 023°41'0 0.0
2014-Oct-23 07:33N 37°56' E 023°41'0 0.0
2014-Oct-23 06:33N 37°56' E 023°41'0 0.0
2014-Oct-23 05:33N 37°56' E 023°41'0 0.0
2014-Oct-23 04:33N 37°56' E 023°41'0 0.0
2014-Oct-23 03:33N 37°56' E 023°41'0 0.0
2014-Oct-23 02:33N 37°56' E 023°41'0 0.0
2014-Oct-23 01:33N 37°56' E 023°41'0 0.0
2014-Oct-23 00:33N 37°56' E 023°41'0 0.0
2014-Oct-22 23:34N 37°56' E 023°41'0 0.0
2014-Oct-22 22:33N 37°56' E 023°41'0 0.0
2014-Oct-22 21:33N 37°56' E 023°41'0 0.0
2014-Oct-22 20:33N 37°56' E 023°41'0 0.0
2014-Oct-22 19:33N 37°56' E 023°41'0 0.0
2014-Oct-22 18:33N 37°56' E 023°41'0 0.0
2014-Oct-22 17:33N 37°56' E 023°41'0 0.0
2014-Oct-22 16:33N 37°56' E 023°41'1110.6
2014-Oct-22 15:33N 37°49' E 023°32'6 5.9
2014-Oct-22 14:30N 37°45' E 023°26'0 0.0
2014-Oct-22 13:13N 37°45' E 023°26'7 9.8
2014-Oct-22 12:33N 37°38' E 023°25'9 1.5
2014-Oct-22 06:28N 37°44' E 023°34'1111.5
2014-Oct-22 05:33N 37°54' E 023°39'3 2.9
2014-Oct-22 04:33N 37°56' E 023°41'0 0.0
2014-Oct-21 16:33N 37°56' E 023°41'10 9.8
2014-Oct-21 15:33N 37°49' E 023°33'7 6.9
2014-Oct-21 14:32N 37°45' E 023°26'0 0.0
2014-Oct-21 13:33N 37°45' E 023°26'5 5.2
2014-Oct-21 12:33N 37°40' E 023°26'9 1.6
2014-Oct-21 06:33N 37°42' E 023°38'1211.8
2014-Oct-21 05:33N 37°53' E 023°40'3 3.1
2014-Oct-21 04:33N 37°56' E 023°41'2 0.1
2014-Oct-20 16:34N 37°55' E 023°39'1211.7
2014-Oct-20 15:33N 37°48' E 023°28'4 3.5
2014-Oct-20 14:33N 37°45' E 023°26'0 0.0
2014-Oct-20 13:33N 37°45' E 023°26'9 8.3
2014-Oct-20 12:31N 37°36' E 023°26'7 1.4
2014-Oct-20 07:06N 37°38' E 023°35'711.7
2014-Oct-20 06:32N 37°45' E 023°36'1111.6
2014-Oct-20 05:33N 37°55' E 023°40'1 1.0
2014-Oct-20 04:33N 37°56' E 023°41'0 0.0
2014-Oct-19 15:33N 37°56' E 023°41'1110.6
2014-Oct-19 14:34N 37°47' E 023°35'1111.3
2014-Oct-19 13:33N 37°37' E 023°27'3 1.4
2014-Oct-19 11:11N 37°34' E 023°26'711.2
2014-Oct-19 10:33N 37°41' E 023°27'4 3.1
2014-Oct-19 09:14N 37°45' E 023°26'0 0.0
2014-Oct-19 08:29N 37°45' E 023°26'2 2.4
2014-Oct-19 07:31N 37°47' E 023°26'1111.7
2014-Oct-19 06:33N 37°54' E 023°37'4 3.6
2014-Oct-19 05:34N 37°56' E 023°41'0 0.0
2014-Oct-19 04:34N 37°56' E 023°41'1 0.1
2014-Oct-18 16:33N 37°56' E 023°40'1211.6
2014-Oct-18 15:33N 37°48' E 023°28'4 4.2
2014-Oct-18 14:33N 37°45' E 023°26'0 0.0
2014-Oct-18 13:33N 37°45' E 023°26'6 6.3
2014-Oct-18 12:33N 37°39' E 023°26'7 1.2
2014-Oct-18 06:33N 37°43' E 023°32'1111.5
2014-Oct-18 05:33N 37°53' E 023°39'3 3.3
2014-Oct-18 04:33N 37°56' E 023°41'0 0.0
2014-Oct-17 16:33N 37°56' E 023°41'1111.2
2014-Oct-17 15:33N 37°50' E 023°29'6 5.9
2014-Oct-17 14:33N 37°45' E 023°26'0 0.0
2014-Oct-17 13:33N 37°45' E 023°26'5 5.3
2014-Oct-17 12:33N 37°40' E 023°25'8 1.3
2014-Oct-17 06:29N 37°44' E 023°33'1111.6
2014-Oct-17 05:34N 37°54' E 023°38'3 3.5
2014-Oct-17 04:34N 37°56' E 023°41'0 0.0
2014-Oct-16 16:34N 37°56' E 023°41'1211.7
2014-Oct-16 15:33N 37°49' E 023°29'5 5.2
2014-Oct-16 14:33N 37°45' E 023°26'0 0.0
2014-Oct-16 13:34N 37°45' E 023°26'7 6.6
2014-Oct-16 12:34N 37°38' E 023°25'12 6.1
2014-Oct-16 10:33N 37°27' E 023°32'15 3.7
2014-Oct-16 06:32N 37°41' E 023°37'1111.7
2014-Oct-16 05:33N 37°53' E 023°39'4 3.7
2014-Oct-16 04:33N 37°56' E 023°41'  
Track history (hours):
 
Tides and Currents Weather Stations Pressure Air Temp Water Temp Dewpoint Dewpoint Depression Visibility Wind Speed Wind Dir Waves Ship Positions

Platitera Tonouranon

Last reported at 2014-Oct-25 22:33 UTC. Time now 2014-Oct-25 22:47 UTC.
Position N 37°56' E 023°41'.

Length 55 m; draft 3.8 m.

Type: Ship (hazmat cat A). MMSI: 237038200.

Date/timePositionNaut miles runAvg speedWind from/ knotsBaromVisibWave heightAir tempDewpointWater temp
2014-Oct-25 22:33N 37°56' E 023°41'0 0.0
2014-Oct-25 21:33N 37°56' E 023°41'0 0.0
2014-Oct-25 20:33N 37°56' E 023°41'0 0.0
2014-Oct-25 19:33N 37°56' E 023°41'0 0.0
2014-Oct-25 18:33N 37°56' E 023°41'0 0.0
2014-Oct-25 17:33N 37°56' E 023°41'0 0.2
2014-Oct-25 16:33N 37°56' E 023°41'1111.4
2014-Oct-25 15:33N 37°46' E 023°35'7 1.0
2014-Oct-25 08:30N 37°45' E 023°26'0 0.0
2014-Oct-25 07:05N 37°45' E 023°26'510.1
2014-Oct-25 06:33N 37°50' E 023°24'8 8.6
2014-Oct-25 05:34N 37°58' E 023°22'0 0.0
2014-Oct-25 04:33N 37°58' E 023°22'0 0.0
2014-Oct-25 03:34N 37°58' E 023°22'0 0.0
2014-Oct-25 02:33N 37°58' E 023°22'0 0.0
2014-Oct-25 01:33N 37°58' E 023°22'0 0.0
2014-Oct-25 00:33N 37°58' E 023°22'0 0.0
2014-Oct-24 23:34N 37°58' E 023°22'0 0.0
2014-Oct-24 22:34N 37°58' E 023°22'0 0.0
2014-Oct-24 21:33N 37°58' E 023°22'0 0.0
2014-Oct-24 20:33N 37°58' E 023°22'0 0.0
2014-Oct-24 19:33N 37°58' E 023°22'0 0.0
2014-Oct-24 18:34N 37°58' E 023°22'0 0.0
2014-Oct-24 17:34N 37°58' E 023°22'0 0.0
2014-Oct-24 16:33N 37°58' E 023°22'5 5.1
2014-Oct-24 15:30N 37°53' E 023°23'9 4.4
2014-Oct-24 13:33N 37°45' E 023°26'4 4.2
2014-Oct-24 12:33N 37°41' E 023°25'8 1.2
2014-Oct-24 06:17N 37°44' E 023°34'811.2
2014-Oct-24 05:33N 37°52' E 023°37'5 5.4
2014-Oct-24 04:33N 37°56' E 023°41'0 0.0
2014-Oct-24 03:33N 37°56' E 023°41'0 0.0
2014-Oct-24 02:33N 37°56' E 023°41'0 0.0
2014-Oct-24 01:33N 37°56' E 023°41'0 0.0
2014-Oct-24 00:33N 37°56' E 023°41'0 0.0
2014-Oct-23 23:33N 37°56' E 023°41'0 0.0
2014-Oct-23 22:33N 37°56' E 023°41'0 0.0
2014-Oct-23 21:33N 37°56' E 023°41'0 0.0
2014-Oct-23 20:33N 37°56' E 023°41'0 0.0
2014-Oct-23 19:33N 37°56' E 023°41'0 0.0
2014-Oct-23 18:33N 37°56' E 023°41'0 0.0
2014-Oct-23 17:33N 37°56' E 023°41'0 0.0
2014-Oct-23 16:33N 37°56' E 023°41'0 0.0
2014-Oct-23 15:33N 37°56' E 023°41'0 0.0
2014-Oct-23 14:33N 37°56' E 023°41'0 0.0
2014-Oct-23 13:33N 37°56' E 023°41'0 0.0
2014-Oct-23 12:33N 37°56' E 023°41'0 0.0
2014-Oct-23 11:33N 37°56' E 023°41'0 0.0
2014-Oct-23 10:33N 37°56' E 023°41'0 0.0
2014-Oct-23 09:33N 37°56' E 023°41'0 0.0
2014-Oct-23 08:33N 37°56' E 023°41'0 0.0
2014-Oct-23 07:33N 37°56' E 023°41'0 0.0
2014-Oct-23 06:33N 37°56' E 023°41'0 0.0
2014-Oct-23 05:33N 37°56' E 023°41'0 0.0
2014-Oct-23 04:33N 37°56' E 023°41'0 0.0
2014-Oct-23 03:33N 37°56' E 023°41'0 0.0
2014-Oct-23 02:33N 37°56' E 023°41'0 0.0
2014-Oct-23 01:33N 37°56' E 023°41'0 0.0
2014-Oct-23 00:33N 37°56' E 023°41'0 0.0
2014-Oct-22 23:34N 37°56' E 023°41'0 0.0
2014-Oct-22 22:33N 37°56' E 023°41'0 0.0
2014-Oct-22 21:33N 37°56' E 023°41'0 0.0
2014-Oct-22 20:33N 37°56' E 023°41'0 0.0
2014-Oct-22 19:33N 37°56' E 023°41'0 0.0
2014-Oct-22 18:33N 37°56' E 023°41'0 0.0
2014-Oct-22 17:33N 37°56' E 023°41'0 0.0
2014-Oct-22 16:33N 37°56' E 023°41'1110.6
2014-Oct-22 15:33N 37°49' E 023°32'6 5.9
2014-Oct-22 14:30N 37°45' E 023°26'0 0.0
2014-Oct-22 13:13N 37°45' E 023°26'7 9.8
2014-Oct-22 12:33N 37°38' E 023°25'9 1.5
2014-Oct-22 06:28N 37°44' E 023°34'1111.5
2014-Oct-22 05:33N 37°54' E 023°39'3 2.9
2014-Oct-22 04:33N 37°56' E 023°41'0 0.0
2014-Oct-21 16:33N 37°56' E 023°41'10 9.8
2014-Oct-21 15:33N 37°49' E 023°33'7 6.9
2014-Oct-21 14:32N 37°45' E 023°26'0 0.0
2014-Oct-21 13:33N 37°45' E 023°26'5 5.2
2014-Oct-21 12:33N 37°40' E 023°26'9 1.6
2014-Oct-21 06:33N 37°42' E 023°38'1211.8
2014-Oct-21 05:33N 37°53' E 023°40'3 3.1
2014-Oct-21 04:33N 37°56' E 023°41'2 0.1
2014-Oct-20 16:34N 37°55' E 023°39'1211.7
2014-Oct-20 15:33N 37°48' E 023°28'4 3.5
2014-Oct-20 14:33N 37°45' E 023°26'0 0.0
2014-Oct-20 13:33N 37°45' E 023°26'9 8.3
2014-Oct-20 12:31N 37°36' E 023°26'7 1.4
2014-Oct-20 07:06N 37°38' E 023°35'711.7
2014-Oct-20 06:32N 37°45' E 023°36'1111.6
2014-Oct-20 05:33N 37°55' E 023°40'1 1.0
2014-Oct-20 04:33N 37°56' E 023°41'0 0.0
2014-Oct-19 15:33N 37°56' E 023°41'1110.6
2014-Oct-19 14:34N 37°47' E 023°35'1111.3
2014-Oct-19 13:33N 37°37' E 023°27'3 1.4
2014-Oct-19 11:11N 37°34' E 023°26'711.2
2014-Oct-19 10:33N 37°41' E 023°27'4 3.1
2014-Oct-19 09:14N 37°45' E 023°26'0 0.0
2014-Oct-19 08:29N 37°45' E 023°26'2 2.4
2014-Oct-19 07:31N 37°47' E 023°26'1111.7
2014-Oct-19 06:33N 37°54' E 023°37'4 3.6
2014-Oct-19 05:34N 37°56' E 023°41'0 0.0
2014-Oct-19 04:34N 37°56' E 023°41'1 0.1
2014-Oct-18 16:33N 37°56' E 023°40'1211.6
2014-Oct-18 15:33N 37°48' E 023°28'4 4.2
2014-Oct-18 14:33N 37°45' E 023°26'0 0.0
2014-Oct-18 13:33N 37°45' E 023°26'6 6.3
2014-Oct-18 12:33N 37°39' E 023°26'7 1.2
2014-Oct-18 06:33N 37°43' E 023°32'1111.5
2014-Oct-18 05:33N 37°53' E 023°39'3 3.3
2014-Oct-18 04:33N 37°56' E 023°41'0 0.0
2014-Oct-17 16:33N 37°56' E 023°41'1111.2
2014-Oct-17 15:33N 37°50' E 023°29'6 5.9
2014-Oct-17 14:33N 37°45' E 023°26'0 0.0
2014-Oct-17 13:33N 37°45' E 023°26'5 5.3
2014-Oct-17 12:33N 37°40' E 023°25'8 1.3
2014-Oct-17 06:29N 37°44' E 023°33'1111.6
2014-Oct-17 05:34N 37°54' E 023°38'3 3.5
2014-Oct-17 04:34N 37°56' E 023°41'0 0.0
2014-Oct-16 16:34N 37°56' E 023°41'1211.7
2014-Oct-16 15:33N 37°49' E 023°29'5 5.2
2014-Oct-16 14:33N 37°45' E 023°26'0 0.0
2014-Oct-16 13:34N 37°45' E 023°26'7 6.6
2014-Oct-16 12:34N 37°38' E 023°25'12 6.1
2014-Oct-16 10:33N 37°27' E 023°32'15 3.7
2014-Oct-16 06:32N 37°41' E 023°37'1111.7
2014-Oct-16 05:33N 37°53' E 023°39'4 3.7
2014-Oct-16 04:33N 37°56' E 023°41'  

Dump ship's entire track history